STARLINK-34655 (65027 NORAD) Tracking and Keplerian Element Data

This shows tracking and keplerian element data for the satellite.

Feedback or suggestion? Click here.




ElementValue
Catalog65027
NameSTARLINK-34655
Epoch Orbit2315
Epoch Day354.19332313
Epoch Year2025
RAAN303.8066
Inclination53.1608
Eccentricity0.0001265
Argument of Perigee92.2818
Mean Anonmoly267.8328
Mean Motion15.30202202
Decay Rate0.00019165
L11 65027U 25161N 25354.19332313 .00019165 00000+0 65746-3 0 9991
L22 65027 53.1608 303.8066 0001265 92.2818 267.8328 15.30202202 23159



Live tracking and technical data element details for STARLINK-34655 (NORAD 65027). STARLINK-34655 can be tracked NOW for your location showing map with azimuth and elevation plus other details from your city location.







IsCatalogInMostPopularTable: catalog: 65027, numindb: 5
Update: records affected: 1



GetName: 65027 STARLINK-34655

Hit Count: updated at: Tue, 17 Feb 2026 11:05:08 GMT